Theta_e
322 316 316 310 299 295 289 292 296 299 298 301 303 303 306 307 310 304 328 333 336 336 339 343 346 345 344 347 345 344 343 340 339 339 339 340 341 344 345 343 344 339 338 337 336 336 337 337 338
318 315 310 303 294 288 289 293 296 298 300 303 305 304 305 308 321 324 324 334 336 336 339 343 345 346 345 347 345 344 342 339 337 337 337 338 340 342 344 341 341 337 336 336 336 337 337 337 338
316 313 303 299 292 288 289 294 299 300 302 302 302 305 307 311 324 326 332 335 336 336 339 342 345 347 347 347 345 344 343 340 337 336 336 338 339 340 340 339 337 336 335 335 336 336 336 336 336
310 307 301 294 290 292 293 298 300 299 301 303 304 304 311 315 328 331 334 335 335 336 340 342 346 347 347 347 345 344 342 340 338 336 335 337 337 338 338 336 334 333 333 334 334 335 335 334 337
306 302 295 293 292 294 295 300 302 299 299 299 301 302 307 321 332 333 334 336 336 337 339 344 345 347 347 347 346 345 341 340 339 335 335 335 335 336 335 333 331 331 332 332 332 333 332 334 334
301 299 292 289 292 295 295 299 302 298 299 300 299 303 308 322 329 331 333 333 339 339 342 344 340 342 344 345 345 344 342 341 340 335 334 334 333 334 332 330 329 330 331 331 331 332 333 334 334
299 297 290 292 291 293 296 299 298 297 299 300 303 299 309 317 327 331 331 333 339 340 341 342 342 341 338 340 341 342 342 341 340 339 336 335 334 334 331 330 328 329 330 330 330 332 332 333 332
300 297 292 291 291 292 297 298 299 298 296 302 302 299 305 315 326 331 330 330 337 335 337 338 338 340 340 339 335 336 338 338 338 336 334 331 332 331 330 328 328 328 329 329 330 330 330 330 329
299 292 289 292 293 294 298 296 298 299 300 299 302 302 307 319 326 327 326 325 333 335 335 335 335 337 338 338 334 332 333 333 332 330 327 325 324 323 323 325 327 328 328 328 329 327 326 325 326
295 290 292 295 294 295 297 297 298 296 296 296 298 301 313 322 322 321 322 321 325 327 333 336 335 335 336 339 334 335 335 333 331 329 326 325 323 322 323 321 325 327 327 327 326 325 323 317 313
296 293 295 296 299 298 298 295 298 296 293 297 299 301 315 318 318 320 321 321 325 327 330 334 336 335 334 336 336 336 335 333 330 327 326 325 322 320 319 317 316 317 318 320 320 315 313 312 311
292 296 297 300 301 298 296 298 295 296 297 300 301 304 314 315 317 319 320 321 323 327 328 332 336 335 335 336 337 336 335 334 331 328 327 325 322 319 316 315 313 312 311 309 310 309 309 308 308
292 294 297 299 298 296 298 295 296 296 299 299 302 305 313 315 315 316 319 321 322 324 328 330 333 335 335 334 335 336 335 334 333 331 330 328 324 319 316 315 315 313 310 311 308 307 307 304 304
296 296 296 298 297 297 295 294 295 298 299 298 300 301 306 311 314 313 314 320 319 324 326 328 330 333 335 335 335 334 335 335 334 332 331 330 327 322 318 317 316 314 316 314 310 307 304 301 301
297 291 293 295 296 295 296 291 294 297 298 298 298 297 300 305 310 313 316 317 321 323 326 327 329 330 330 333 333 334 335 335 334 333 331 331 329 324 321 320 319 318 314 312 307 304 301 299 297
292 291 286 293 296 296 293 285 294 297 296 297 296 295 297 299 303 310 313 316 317 320 322 327 330 329 330 330 331 333 333 334 334 333 333 331 329 326 323 321 319 317 311 308 305 302 298 296 295
289 283 285 290 296 295 292 288 296 297 295 294 295 296 297 297 299 302 308 315 316 319 323 324 328 328 328 327 328 328 329 331 333 334 333 331 330 327 324 321 319 314 309 306 303 301 297 294 292
284 285 287 286 293 293 291 290 294 297 296 296 295 296 296 297 299 301 303 309 316 317 322 325 326 328 328 326 324 323 323 326 330 330 332 331 330 328 325 321 317 312 307 304 302 300 297 294 292
289 287 285 288 293 291 290 290 293 295 293 292 294 295 296 297 301 300 302 305 310 315 318 323 323 324 326 324 322 321 324 323 321 325 329 331 331 329 326 321 317 312 308 304 302 300 295 293 291
289 286 285 289 293 290 290 290 293 293 295 296 296 293 295 295 298 300 299 300 305 313 317 322 324 323 325 326 326 325 320 315 320 316 320 330 330 329 327 322 316 313 310 305 302 300 295 293 291
288 286 286 287 289 289 287 285 288 293 294 295 295 296 296 297 297 298 298 299 303 306 312 318 322 322 323 323 316 311 311 309 311 311 313 318 324 326 326 321 317 313 312 306 303 300 297 292 291
286 290 291 289 286 281 288 279 286 291 293 292 294 294 295 296 297 297 298 298 299 305 310 315 318 319 320 318 316 317 317 315 317 318 317 310 315 320 322 319 316 314 313 309 304 301 299 296 291
289 292 290 289 285 284 283 280 285 287 287 291 292 293 294 296 296 298 298 299 300 302 303 306 308 312 315 315 315 315 314 314 303 304 306 307 306 312 313 315 314 313 313 311 306 302 300 297 295
294 292 291 288 285 278 284 283 281 285 288 289 291 293 295 296 301 300 301 300 300 299 300 302 305 305 307 312 310 311 311 303 302 302 304 304 303 306 309 309 312 313 312 310 306 303 300 297 297
291 286 278 278 277 277 283 281 284 289 291 291 292 292 293 296 298 298 298 298 299 299 300 300 302 303 303 305 307 305 306 305 305 303 304 303 305 306 307 308 308 310 310 310 307 303 301 298 297
288 286 279 274 276 278 282 280 286 291 293 292 293 294 293 294 295 296 297 298 298 297 299 300 300 300 301 303 304 306 305 307 307 305 306 305 304 305 306 305 308 308 308 308 306 303 301 300 298
287 285 289 282 273 276 280 284 289 292 292 294 293 294 295 297 298 298 298 298 298 297 298 300 300 300 301 302 302 303 305 304 305 303 305 306 303 302 300 302 303 304 304 305 305 302 300 299 297
289 291 283 282 273 272 277 280 284 288 290 293 294 294 294 296 297 297 297 298 298 298 298 298 299 299 300 300 301 303 303 304 303 302 302 303 301 300 297 297 300 301 302 303 303 302 300 299 297
286 285 286 286 282 276 274 280 287 289 292 291 293 295 295 297 297 297 297 297 298 298 298 298 298 298 298 299 300 300 300 301 301 302 302 301 299 298 296 295 296 298 299 300 301 301 299 297 297
288 286 287 280 279 280 279 283 291 291 292 293 293 295 295 296 298 297 297 297 296 297 297 297 298 298 298 298 299 299 299 299 300 301 301 299 299 296 295 294 293 294 296 296 298 296 295 295 292
Wind_Speed
7 8 1 5 5 6 1 3 5 6 5 2 2 7 7 2 2 2 7 9 15 14 11 9 9 12 9 12 12 10 12 13 13 14 14 15 15 15 19 20 19 19 19 18 18 18 19 18 16
4 5 5 3 5 5 3 4 7 4 5 5 6 4 3 2 4 7 9 9 15 13 11 8 10 14 13 12 12 11 12 13 14 14 14 15 15 15 18 18 18 18 18 18 18 18 18 17 17
3 3 4 5 4 4 4 5 8 4 5 4 4 3 4 2 3 9 8 15 16 12 11 10 12 14 15 14 13 12 12 13 14 14 14 15 15 15 16 17 18 18 17 17 18 17 16 17 16
1 6 5 5 3 2 6 9 9 5 4 4 5 6 4 2 12 7 15 16 14 13 12 12 14 15 15 14 14 13 13 14 14 14 14 16 15 15 16 17 16 17 17 17 17 15 16 16 18
4 4 2 2 2 3 5 7 7 5 7 3 3 5 4 3 7 10 14 11 13 11 12 12 14 15 14 14 14 13 13 13 14 14 14 15 15 15 16 16 16 16 16 17 16 16 15 16 17
4 3 4 2 4 4 2 7 9 6 6 4 4 7 5 6 8 7 8 9 13 12 12 12 13 13 13 13 13 13 13 13 14 14 15 16 15 15 16 16 16 16 17 16 16 16 17 20 22
5 4 4 1 5 4 4 4 7 7 8 5 6 5 3 4 7 8 8 9 13 13 11 9 10 11 12 12 11 12 15 14 14 13 14 14 14 14 15 14 15 16 16 16 17 17 18 21 23
5 4 5 4 1 3 3 2 1 6 2 2 3 5 6 7 8 8 7 7 13 11 11 9 7 8 8 8 11 11 13 14 13 13 13 13 13 12 12 11 14 16 16 16 17 16 16 19 20
3 5 2 5 3 5 4 3 3 1 6 2 3 5 5 12 10 7 5 5 11 11 11 10 8 6 7 7 7 10 13 13 14 12 13 11 6 7 7 9 14 16 17 17 16 16 15 16 16
5 4 3 2 2 5 5 4 5 4 4 2 3 3 6 11 10 9 7 7 8 11 13 12 12 10 8 7 6 6 7 7 7 8 9 6 7 6 7 8 11 14 15 17 18 16 12 9 5
3 5 2 3 3 4 4 2 5 6 3 7 10 8 12 8 8 9 8 7 9 8 9 14 13 13 13 9 7 5 4 5 5 9 6 6 6 7 5 4 4 4 6 5 6 5 4 6 5
2 1 3 1 3 3 2 5 1 6 6 2 8 14 12 10 13 12 11 9 9 9 9 10 14 13 13 8 8 9 7 6 6 8 6 7 6 6 6 5 5 4 3 5 4 3 5 6 6
3 0 4 4 3 1 2 2 4 5 8 2 8 12 16 13 11 9 9 8 8 10 10 11 11 12 10 11 8 9 9 8 8 9 9 9 8 8 7 5 6 7 5 5 4 5 5 6 6
1 2 1 3 3 1 1 3 1 8 7 5 8 12 11 12 15 8 8 12 11 11 13 11 12 11 10 11 12 10 9 10 9 8 9 11 9 8 8 7 7 7 6 6 6 6 6 5 7
2 2 3 5 5 1 2 6 9 9 2 7 9 9 10 12 10 15 17 15 15 11 12 13 13 11 10 12 10 9 9 9 9 9 11 13 11 11 11 8 7 6 6 8 7 6 6 6 6
2 3 1 3 7 2 5 8 7 5 8 10 8 8 9 11 12 13 13 13 10 9 14 14 13 13 11 9 8 8 8 8 9 9 10 13 13 13 10 9 8 7 7 8 8 7 7 5 5
3 2 5 2 5 4 3 6 5 6 2 7 8 9 9 10 11 13 14 16 14 13 12 14 15 15 12 9 7 7 8 8 9 9 9 14 14 14 12 9 9 10 8 8 9 6 8 7 5
4 3 3 4 5 4 4 9 11 11 6 10 10 10 10 10 16 13 15 14 14 13 11 13 12 14 13 8 6 4 5 7 8 9 10 14 12 14 11 9 10 9 8 8 8 10 7 8 8
4 2 0 1 3 4 6 9 11 11 8 9 11 11 11 12 12 10 14 13 11 12 11 14 14 13 12 8 8 7 11 7 5 6 12 15 13 15 14 10 11 11 11 12 12 10 13 8 8
3 2 4 2 1 2 6 12 12 9 12 14 14 10 11 7 9 10 8 10 12 16 16 14 15 14 14 11 10 8 5 2 3 3 6 11 14 16 14 13 13 13 10 11 12 14 10 3 11
1 3 3 5 3 3 5 9 6 7 5 8 9 10 8 12 12 10 10 11 13 13 15 16 16 15 14 12 4 3 3 2 3 4 4 7 11 13 14 13 12 13 13 12 16 15 17 11 11
3 2 4 4 4 4 4 9 6 7 12 6 10 9 11 9 7 7 9 7 11 16 14 15 13 14 14 13 11 14 12 12 10 9 5 4 6 9 10 12 13 15 12 14 15 15 14 11 13
6 2 3 2 2 2 4 0 10 5 6 11 9 8 7 9 7 8 9 9 9 10 11 9 9 11 11 15 14 12 13 8 3 3 6 6 5 5 6 10 13 14 12 14 16 16 15 11 11
7 5 7 5 3 4 9 8 5 4 6 1 1 5 5 5 4 4 2 3 4 4 6 7 9 8 10 14 12 14 14 7 6 5 7 6 4 5 6 8 10 13 13 14 14 16 18 14 12
3 6 2 3 3 9 4 2 7 7 8 3 3 4 4 7 5 7 7 5 3 5 7 7 8 9 8 10 12 10 11 12 13 10 8 9 8 7 12 12 12 11 13 13 14 15 15 16 14
8 8 8 7 5 5 5 8 7 8 4 3 1 7 6 6 5 7 8 8 7 5 4 4 5 5 6 8 10 10 10 9 9 10 8 9 9 10 12 13 13 12 12 12 13 11 12 14 13
6 7 6 4 1 4 6 8 8 10 9 9 12 6 8 9 8 9 9 8 6 3 4 6 6 7 8 8 7 7 8 8 9 7 8 8 8 8 11 14 14 12 12 12 13 11 13 12 13
5 5 2 3 3 4 6 7 10 10 6 7 7 4 6 5 7 7 8 6 4 2 3 4 5 7 7 7 7 7 8 8 7 7 8 9 9 9 10 11 13 13 13 14 14 11 12 13 11
3 1 2 4 6 6 3 10 7 6 8 4 3 8 6 5 3 4 4 3 4 4 5 5 5 7 7 7 6 7 6 7 7 8 8 9 8 10 10 11 12 13 13 13 13 12 12 15 13
5 6 6 6 5 5 3 16 4 11 9 7 6 7 8 5 5 5 5 5 5 6 5 6 7 6 7 6 7 7 7 7 9 11 10 8 10 9 11 11 11 12 12 12 14 12 12 15 13
Wind_Direction
325 317 191 41 50 70 290 30 125 85 44 43 50 77 130 91 58 169 153 165 135 144 152 154 146 137 137 117 118 113 106 105 102 97 95 94 92 85 94 91 88 87 86 86 86 90 93 85 74
336 317 46 74 79 77 289 109 86 99 136 96 55 34 62 96 84 103 139 168 138 142 145 149 140 135 142 130 127 123 114 111 107 103 101 100 98 88 92 91 90 91 90 92 92 92 92 80 67
337 223 76 112 118 129 171 131 145 123 98 116 91 63 81 77 80 150 144 137 137 140 147 147 141 140 144 138 136 129 122 113 107 105 104 102 99 97 93 92 91 95 95 96 95 94 86 70 61
19 8 14 85 155 340 115 160 139 113 28 54 117 80 56 314 151 157 139 143 140 149 148 148 146 146 146 143 138 134 125 116 109 107 107 104 104 103 98 96 99 98 100 99 97 96 81 66 73
36 63 8 30 59 126 99 164 135 121 147 148 100 159 99 25 128 127 144 146 140 140 142 147 145 148 149 145 140 137 124 120 117 115 113 110 111 109 103 104 104 104 105 101 99 93 79 67 84
18 91 44 346 159 136 82 149 133 130 136 161 98 116 176 156 124 156 139 132 125 132 140 147 144 148 149 149 145 141 133 127 124 124 122 119 116 113 111 112 111 110 104 105 102 94 79 79 88
118 83 207 251 206 113 177 149 137 148 139 183 156 91 149 155 167 160 153 138 131 134 137 142 146 153 153 153 150 144 133 130 129 129 122 116 114 112 113 113 115 113 111 107 105 94 87 87 85
111 94 337 285 113 140 194 91 60 126 181 145 114 149 186 207 183 153 162 139 136 142 138 142 141 153 158 156 158 148 138 135 127 123 114 107 103 105 111 114 116 115 111 109 103 93 91 90 84
67 66 302 278 136 156 175 112 348 136 115 89 117 134 177 158 150 144 168 135 142 148 144 147 148 156 154 156 164 150 146 138 134 130 126 122 119 112 109 121 123 125 122 117 110 102 89 71 75
97 114 227 312 60 149 183 139 183 121 114 99 76 57 106 138 151 160 187 175 168 158 158 162 161 166 161 166 159 155 149 147 144 146 146 137 124 126 118 119 125 127 128 128 121 105 83 69 74
168 173 200 344 51 53 141 130 199 136 193 200 194 170 152 150 163 175 196 182 185 177 163 164 172 172 171 171 167 163 155 154 153 160 157 140 130 129 119 114 110 121 121 133 111 80 90 93 98
136 129 88 95 30 34 84 306 268 179 222 147 194 168 158 165 178 186 196 193 175 179 177 176 173 174 177 166 171 169 169 169 167 176 161 148 145 144 141 147 144 140 141 119 113 103 98 82 82
114 194 69 116 80 69 22 278 234 258 248 200 118 155 175 178 189 197 194 196 184 187 190 182 180 180 178 168 173 172 175 178 178 180 174 165 159 158 154 168 163 160 153 135 126 113 101 84 68
143 96 171 163 178 183 152 267 90 263 241 173 149 180 188 187 193 187 195 204 200 192 192 182 186 184 175 180 181 177 175 179 179 184 183 175 164 161 167 167 183 173 162 150 136 130 120 111 107
63 43 325 216 187 186 122 311 230 228 277 194 213 194 197 209 194 200 204 205 202 203 191 189 184 185 175 179 177 175 178 178 182 185 183 181 171 172 170 173 179 179 147 139 127 112 106 109 106
103 57 36 291 142 198 109 270 290 295 182 223 217 218 217 224 209 211 203 205 199 185 190 193 190 184 179 180 171 173 177 180 184 186 188 182 177 173 172 173 177 162 147 144 144 144 130 121 125
336 201 203 296 194 125 154 266 255 354 84 228 237 248 230 234 245 221 206 204 199 195 187 188 188 188 181 176 172 175 181 183 189 184 186 189 182 176 174 177 172 163 153 152 151 149 146 138 128
201 222 283 215 235 143 201 256 278 289 237 246 238 240 239 234 237 220 216 207 201 194 187 186 186 190 186 170 164 174 182 197 190 186 185 182 185 178 175 175 166 164 159 155 156 155 147 144 142
129 135 355 302 228 157 225 264 267 268 291 261 249 240 240 236 241 222 217 207 193 198 180 187 180 188 179 183 177 190 206 201 197 190 183 182 184 184 182 179 170 169 171 175 170 152 147 147 135
181 165 275 332 177 158 272 271 263 251 251 242 250 246 237 246 254 254 219 205 196 198 196 190 192 184 190 191 198 203 189 195 198 192 186 179 185 182 188 180 177 179 176 169 170 164 152 139 173
190 169 238 222 345 290 348 289 292 290 249 269 256 245 242 228 236 237 238 212 205 200 196 196 193 186 190 186 141 92 91 77 179 204 199 194 183 182 183 180 178 181 179 182 177 176 179 163 194
205 198 232 242 72 244 84 288 287 264 277 290 278 260 246 256 258 248 240 219 201 217 205 201 192 182 184 172 178 196 206 213 221 220 209 184 195 178 186 182 183 182 187 188 189 183 185 169 184
210 169 133 104 120 36 314 216 273 265 275 265 284 281 284 269 247 263 258 241 220 203 199 190 176 177 175 182 190 194 207 213 153 152 174 185 188 205 179 190 188 188 195 193 189 188 190 196 176
155 72 40 38 72 292 204 190 278 237 219 272 345 53 38 37 34 357 354 33 258 206 182 179 180 189 180 186 190 194 203 176 166 175 191 196 185 193 202 194 203 198 197 193 193 191 193 193 194
113 92 338 340 359 239 328 236 239 268 248 253 347 29 14 349 328 302 302 294 277 215 209 202 195 204 185 186 193 184 192 187 198 190 194 182 198 205 214 205 200 205 203 199 192 194 197 190 205
194 161 161 202 206 270 341 249 266 241 266 130 133 5 26 27 344 324 303 293 281 249 231 225 214 217 195 191 198 196 191 200 206 199 194 202 203 206 205 212 214 205 206 199 195 196 200 198 203
209 211 172 84 38 42 238 290 291 260 296 345 357 45 27 6 4 350 336 321 314 285 229 210 210 219 215 213 204 202 202 198 204 196 199 202 197 194 193 201 205 208 202 201 195 197 199 198 198
133 168 93 2 152 248 272 278 226 302 353 42 44 26 9 346 358 358 357 15 3 263 240 226 229 238 238 231 218 213 209 210 202 191 200 201 196 192 187 190 203 206 208 204 199 198 198 197 199
119 217 172 146 153 175 277 260 222 166 137 112 31 14 350 330 308 289 279 252 215 202 219 231 229 230 237 234 231 225 223 216 211 217 215 205 189 188 191 192 201 207 208 207 204 202 198 199 197
154 186 163 145 244 231 159 265 153 120 100 69 12 342 316 310 276 267 263 267 264 254 242 233 234 232 243 242 237 235 230 220 225 227 221 195 202 191 191 192 196 202 206 206 207 200 194 197 194